Flag for Canada Weather past 2 weeks in Gatineau, Quebec, Canada

Now
63 °F

Sprinkles. Mostly cloudy.


Feels Like: 63 °F
Forecast: 54 / 70 °F
Wind: 6 mph from Southwest

Location: Ottawa Int'L. Ont.

Current Time: Sep 21, 2014 at 2:16:27 AM

Latest Report: Sep 21, 2014 at 1:00 AM


Visibility: 8 mi

Pressure: 29.75 "Hg

Humidity: 94%

Dew point: 61 °F

Location of GatineauLocation

Historic Weather in Gatineau — Graph

°F

Gatineau temperature yesterday

Maximum temperature yesterday: 72 °F (at 3:00 PM)
Minimum temperature yesterday: 39 °F (at 3:00 AM)
Average temperature yesterday: 59 °F

Past Weeks' High & Low Weather Summary

 TemperatureHumidityPressure
High75 °F (Sep 8, 2:00 PM)100% (Sep 6, 7:00 AM)30.42 "Hg (Sep 6, 7:00 AM)
Low34 °F (Sep 19, 5:00 AM)38% (Sep 19, 4:00 PM)29.49 "Hg (Sep 11, 8:00 AM)
Average55 °F78%30.08 "Hg
* Reported Sep 6 1:00 AM — Sep 21 1:00 AM, Gatineau, Weather by CustomWeather, © 2014

Note: Actual official high and low records may vary slightly from our data, if they occured in-between our weather recording intervals... More about our weather records

Advertising

Gatineau weather history for previous 24 hours

 ConditionsComfort  
Time TempWeatherWind HumidityBarometerVisibility
1:00 AM
Sep 21
63 °FSprinkles. Mostly cloudy.6 mph94%29.75 "Hg8 mi
12:00 AM64 °FSprinkles. Overcast.10 mph88%29.78 "Hg8 mi
11:00 PM
Sep 20
68 °FOvercast.13 mph78%29.79 "Hg15 mi
10:00 PM66 °FMostly cloudy.9 mph83%29.81 "Hg15 mi
9:52 PM66 °FMostly cloudy.9 mph83%29.81 "Hg15 mi
9:00 PM68 °FSprinkles. Mostly cloudy.10 mph78%29.81 "Hg15 mi
8:00 PM68 °FMore clouds than sun.13 mph78%29.82 "Hg15 mi
7:00 PM68 °FMostly cloudy.14 mph78%29.82 "Hg15 mi
6:00 PM68 °FSprinkles. Partly sunny.13 mph78%29.82 "Hg10 mi
5:00 PM70 °FSprinkles. Cloudy.15 mph69%29.86 "Hg10 mi
4:00 PM72 °FPartly sunny.15 mph65%29.88 "Hg15 mi
3:00 PM72 °FPartly sunny.20 mph65%29.88 "Hg15 mi
2:00 PM70 °FPartly sunny.14 mph69%29.89 "Hg15 mi
1:00 PM68 °FOvercast.23 mph69%29.93 "Hg15 mi
9:00 AM59 °FBroken clouds.12 mph82%29.99 "Hg15 mi
8:00 AM55 °FOvercast.10 mph88%30.01 "Hg15 mi
7:00 AM52 °FMostly cloudy.8 mph94%30.03 "Hg15 mi
6:00 AM52 °FPartly cloudy.9 mph88%30.04 "Hg15 mi
5:00 AM46 °FPassing clouds.5 mph87%30.05 "Hg15 mi
4:00 AM45 °FPassing clouds.8 mph87%30.07 "Hg15 mi
3:00 AM39 °FPassing clouds.6 mph93%30.11 "Hg15 mi
2:00 AM41 °FPassing clouds.6 mph87%30.13 "Hg15 mi
Weather by CustomWeather, © 2014

See weather overviewHow to use our weather pages